OPTUS 10 (40146 NORAD) Tracking and Keplerian Element Data

This shows tracking and keplerian element data for the satellite.

Feedback or suggestion? Click here.




ElementValue
Catalog40146
NameOPTUS 10
Epoch Orbit3560
Epoch Day158.4126189
Epoch Year2024
RAAN27.238
Inclination0.0897
Eccentricity0.0003165
Argument of Perigee70.0824
Mean Anonmoly102.5155
Mean Motion1.00270793
Decay Rate-1.46E-06
L11 40146U 14054A 24158.41261890 -.00000146 00000+0 00000+0 0 9990
L22 40146 0.0897 27.2380 0003165 70.0824 102.5155 1.00270793 35601



Live tracking and technical data element details for OPTUS 10 (NORAD 40146). OPTUS 10 can be tracked NOW for your location showing map with azimuth and elevation plus other details from your city location.







IsCatalogInMostPopularTable: catalog: 40146, numindb: 601
Update: records affected: 1



GetName: 40146 OPTUS 10

Hit Count: updated at: Sun, 23 Jun 2024 00:44:51 GMT